星链-6184 (STARLINK-6184 )

导读

STARLINK-6184是美国太空探索技术公司(SpaceX)星链互联网星座中的一员,于北京时间2023年6月22日发射升空。作为低轨互联网卫星,它属于星链大规模组网的一部分,运行在近地轨道,为全球范围提供高速互联网接入服务,尤其能填补偏远地区网络覆盖空白,助力天地一体化网络构建,推动卫星互联网技术商业化发展。

基本信息
目录编号:
57081
目录名称:
STARLINK-6184
国际标识:
2023-088AK
轨道中心:
EARTH
卫星名称:
星链-6184
卫星全名:
星链-6184 (STARLINK-6184 )
卫星状态:
在轨 (已飞行1171 天)
发射日期:
2023-06-22 UTC
国别 :
美国 (US)
星等 :
--
轨道信息
数据来源 国际轨道数据 AOE轨道数据
星历时间 2026-09-05T12:27:44+0800
7小时前
查看轨道信息
2026-09-03T23:00:00+0800
1天前
查看轨道信息
半长轴 6861.204km 6861.188km
偏心率 0.0001073 0.0001006
轨道倾角 43.002° 43.000°
近地点辐角 260.769° 245.800°
升交点赤经 162.282° 171.099°
平近点角 99.304° 160.268°
近地点 482.33km 482.36km
远地点 483.804km 483.742km
周期 94.267分钟 94.267分钟
每日圈数 15.275741 15.275796
详细信息
固有亮度:
5
最大亮度:
2.4
卫星平台:
Starlink v1.5
覆盖范围:
全球
运营商:
太空探索技术公司
运营商所在国:
美国
制造商(研发单位):
太空探索技术公司
制造商所在国:
美国
使用方式:
暂无
卫星简介
星链(Starlink)计划是由太空探索技术公司(SpaceX)提出的一个巨型低轨卫星互联网星座项目,计划在2019年至2024年间在太空搭建由约1.2万颗卫星组成的“星链”网络,其中1584颗将部署在地球上空550千米处的近地轨道,并从2020年开始工作。该卫星仍在工作。
2D轨道图
3D轨道图
轨道高度分析图
轨道倾角分析图
轨道综合分析图
查看轨道综合分析图
交会数据列表
事件ID 空间交会对象 最接近时刻(TCA) 交会距离 交会风险概率(CRP) 交会风险指数(CRI) 操作
CDM_260907-193005-708106-314621
2026-09-07T
19:30:05+0000
0.660 km
远距离
5.687119E-5 中风险 0.7
CDM_260907-194105-708106-761921
2026-09-07T
19:41:48+0000
1.142 km
极远距离
6.792681E-6 低风险 0.52
CDM_260907-154605-708106-761921
2026-09-07T
15:46:25+0000
1.183 km
极远距离
6.021014E-6 低风险 0.51
CDM_260907-085905-708106-729123
2026-09-07T
08:59:52+0000
1.982 km
极远距离
2.870949E-6 低风险 0.44
CDM_260907-175505-708106-314621
2026-09-07T
17:55:55+0000
1.684 km
极远距离
2.629778E-6 低风险 0.43
CDM_260907-141205-708106-761921
2026-09-07T
14:12:16+0000
2.442 km
极远距离
8.496617E-7 极低风险 0.34
CDM_260907-180705-708106-761921
2026-09-07T
18:07:39+0000
2.915 km
极远距离
6.642873E-7 极低风险 0.31